Regional Weather Roundup
Issued by NWS Charleston, SC

Current Version | Previous Version | Graphics & Text | Print | Product List | Glossary On
Versions: 1 2 3 4 5 6 7 8 9 10 11 12 13 14 15 16 17 18 19 20 21 22 23 24 25 26 27 28 29 30 31 32 33 34 35 36 37 38 39 40 41 42 43 44 45 46 47 48 49 50
000
ASUS42 KCHS 292112
RWRCHS

REGIONAL WEATHER ROUNDUP
NATIONAL WEATHER SERVICE CHARLESTON SC
500 PM EDT SAT AUG 29 2015

NOTE: "FAIR" INDICATES FEW OR NO CLOUDS BELOW 12,000 FEET WITH NO
SIGNIFICANT WEATHER AND/OR OBSTRUCTIONS TO VISIBILITY.

NOT ALL STATIONS ARE QUALITY CONTROLLED BY THE NATIONAL
WEATHER SERVICE. USE DATA WITH CAUTION...ESPECIALLY
DEWPOINT OBSERVATIONS.

SCZ027-030-031-034>040-042>050-292200-
...SOUTHEAST SOUTH CAROLINA...

CITY           SKY/WX    TMP DP  RH WIND       PRES   REMARKS
N CHARLESTON   PTSUNNY   82  67  60 N6        30.11F
WATERFRONT PRK   N/A     81  73  76 NE7       30.09F
MOUNT PLEASANT FAIR      82  72  69 NE3       30.11F
JOHNS ISLAND   FAIR      82  72  69 N6        30.11S
PINOPOLIS        N/A     84  61  45 NE7       30.05F
MONCKS CORNER  FAIR      82  61  47 CALM      30.12S
SUMMERVILLE    FAIR      86  61  42 NE5       30.12F
BEAUFORT MCAS  FAIR      83  68  60 E8        30.10F
BEAUFORT ARPT  FAIR      81  72  74 NE9       30.10S
HILTON HEAD IS MOSUNNY   79  70  73 N12       30.11F
WALTERBORO     FAIR      86  61  42 E7        30.12F
ALLENDALE      FAIR      84  61  45 VRB6      30.10F

...SOUTHERN MIDLANDS AND PEE DEE...

CITY           SKY/WX    TMP DP  RH WIND       PRES   REMARKS
GEORGETOWN     NOT AVBL
KINGSTREE      NOT AVBL
ORANGEBURG     FAIR      86  53  32 E7        30.12F
BARNWELL       FAIR      84  59  42 E9        30.12S
AIKEN          FAIR      82  50  32 NE10      30.16S
MANNING        FAIR      82  54  36 N7        30.13F
COLUMBIA       PTSUNNY   87  52  29 E9        30.11F
SUMTER         FAIR      86  56  36 NE8       30.10F
FLORENCE       FAIR      87  56  34 NE9       30.12F
MYRTLE BEACH   MOSUNNY   84  66  54 NE9       30.13F
N MYRTLE BEACH FAIR      84  68  58 N7        30.11F

$$

GAZ063-065-086>088-099>101-113>116-118-119-134>141-150-292200-
...SOUTHEAST GEORGIA...

CITY           SKY/WX    TMP DP  RH WIND       PRES   REMARKS
SAVANNAH ARPT  PTSUNNY   83  69  62 E10       30.10F
HUNTER AAF     FAIR      81  74  80 E8        30.08F
FORT STEWART   FAIR      82  71  69 NE8G17    30.07F
STATESBORO     FAIR      85  73  65 E10       30.10S HX  91
SYLVANIA       FAIR      86  72  62 E7        30.11F HX  92
CLAXTON        NOT AVBL

...CSRA...CENTRAL AND FAR SOUTHEAST GEORGIA...

CITY           SKY/WX    TMP DP  RH WIND       PRES   REMARKS
THOMSON        FAIR      86  63  46 E6        30.17S
AUGUSTA-BUSH   FAIR      85  60  42 E8        30.10F
AUGUSTA-DANIEL FAIR      86  58  38 E8        30.13F
SWAINSBORO     FAIR      86  68  54 E6        30.11F
VIDALIA        PTSUNNY   79  73  83 NE5       30.10F
EASTMAN        LGT RAIN  78  78 100 SE3       30.13S
HAZLEHURST     RAIN      79  74  83 CALM      30.09S
ALMA           CLOUDY    79  73  82 N8        30.08S
WAYCROSS       FAIR      86  76  72 E6        30.07S HX  97
JESUP          CLOUDY    86  75  70 E12       30.08F HX  95
BAXLEY         PTSUNNY   81  73  78 N7        30.08S
BRUNSWICK      FAIR      82  73  74 NE13G20   30.08F
SAINT SIMONS   PTSUNNY   81  73  76 NE12G21   30.07S

$$

SCZ027-028-034-036>038-045-046-048>050-GAZ119-141-292200-
...LAKE AND SUPPLEMENTAL COASTAL OBSERVATIONS...

STATION/POSITION TIME  TEMP    WIND        PRES    WAVE   SWELL
                       AIR SEA DIR/SP/G            HT/PER HT/PER/DIR
                 (UTC) (F)     (DEG/KT/KT) (MB)    (FT/S) (FT/S/D)
UPR LAKE MARION  NOT AVBL
WINYAH BAY       1945   81      60/  7     1020.0
LAKE MURRAY      2000   84      80/  4/ 10 1020.0F
ACE BASIN NERRS  NOT AVBL
FORT PULASKI     NOT AVBL
SAPELO ISLAND    2000   83      50/ 12     1019.0F

$$

ANZ835-935-AMZ111-154-330-350-352-354-370-450-454-472-292200-
...C-MAN AND BUOY OBSERVATIONS...

STATION/POSITION TIME  TEMP    WIND        PRES    WAVE   SWELL
                       AIR SEA DIR/SP/G            HT/PER HT/PER/DIR
                 (UTC) (F)     (DEG/KT/KT) (MB)    (FT/S) (FT/S/D)
BUOY 41004       2050   80 85   40/ 14/ 16 1018.9F   4/11   2/11
BUOY 41008       2050   79 85   50/ 17/ 19 1018.5F   4/11   2/100/11
FOLLY BEACH CMAN 2000   80      20/  8/ 10 1020.0F
CAPERS NEARSHORE 2008   81      70/ 14/ 17 1020.1F
FRIPP NEARSHORE  2000   79      20/ 12/ 14 1019.7F


STATION/POSITION TIME  TEMP    WIND        PRES    WAVE   SWELL
                       AIR SEA DIR/SP/G            HT/PER HT/PER/DIR
                 (UTC) (F)     (DEG/KT/KT) (MB)    (FT/S) (FT/S/D)
5E ST. MARYS GA  2021      86                N/A     3/11   2/100/11
FRYING PAN BUOY  2050   81 81   30/ 14/ 16 1019.6F   4/10   3/110/10
BUOY 41025       2050   78 82   20/ 19/ 23 1018.8F   5/11   3/100/11
CAPE LOOKOUT NC  2000   80      40/ 18/ 21 1019.6F
BUOY 41002       2050   83 84  300/  2/  4 1019.1F   5/11   5/140/11
BUOY 41010       2020   84 85  160/  4/  8 1018.1F
ST AUGUSTINE FL  2100   82 87   80/  9/ 10 1018.4S


$$


USA.gov is the U.S. government's official web portal to all federal, state and local government web resources and services.